星链-6350 (STARLINK-6350 )

导读

STARLINK-6350是美国星链(SpaceX星链)项目的卫星,于北京时间2023年7月7日发射升空,属于低轨互联网通信卫星。它加入星链星座组网,补充全球卫星互联网覆盖能力,为偏远地区、海上、航空等场景提供宽带互联网接入服务,推动星链全球通信网络的布局完善,拓展了卫星互联网的服务范围。

基本信息
目录编号:
57226
目录名称:
STARLINK-6350
国际标识:
2023-094J
轨道中心:
EARTH
卫星名称:
星链-6350
卫星全名:
星链-6350 (STARLINK-6350 )
卫星状态:
在轨 (已飞行1162 天)
发射日期:
2023-07-07 UTC
国别 :
美国 (US)
星等 :
--
该卫星已列入 空间交会检测服务 Space Conjunction Data Service (SCDS) ,当前飞行风险评估等级: 无高风险
轨道信息
数据来源 国际轨道数据
星历时间: 2026-09-11T03:16:44+0800
16小时前
查看轨道信息
半长轴: 6861.199km
偏心率: 0.0001818
轨道倾角: 43.005°
近地点辐角 277.333°
升交点赤经 65.514°
平近点角 82.732°
近地点: 481.814km
远地点: 484.31km
周期: 94.267分钟
每日圈数: 15.275757
详细信息
固有亮度:
5
最大亮度:
2.4
卫星平台:
Starlink v1.5
覆盖范围:
全球
运营商:
太空探索技术公司
运营商所在国:
美国
制造商(研发单位):
太空探索技术公司
制造商所在国:
美国
使用方式:
暂无
卫星简介
星链(Starlink)计划是由太空探索技术公司(SpaceX)提出的一个巨型低轨卫星互联网星座项目,计划在2019年至2024年间在太空搭建由约1.2万颗卫星组成的“星链”网络,其中1584颗将部署在地球上空550千米处的近地轨道,并从2020年开始工作。该卫星仍在工作。
2D轨道图
3D轨道图
轨道高度分析图
轨道倾角分析图
轨道综合分析图
查看轨道综合分析图
交会数据列表
事件ID 空间交会对象 最接近时刻(TCA) 交会距离 交会风险概率(CRP) 交会风险指数(CRI) 操作
CDM_260913-033005-722606-341321
2026-09-13T
03:30:35+0000
0.626 km
远距离
6.806105E-5 中风险 0.72
CDM_260912-152605-722606-645921
2026-09-12T
15:26:35+0000
0.782 km
远距离
3.888258E-5 中风险 0.67
CDM_260912-224605-722606-284321
2026-09-12T
22:46:06+0000
0.856 km
远距离
2.163196E-5 中风险 0.62
CDM_260913-085805-722606-284321
2026-09-13T
08:58:06+0000
1.050 km
极远距离
1.077942E-5 中风险 0.56
CDM_260913-002005-722606-284321
2026-09-13T
00:20:16+0000
1.185 km
极远距离
7.10253E-6 低风险 0.52
CDM_260913-044605-722606-645921
2026-09-13T
04:46:53+0000
1.355 km
极远距离
5.988991E-6 低风险 0.51
CDM_260912-135205-722606-645921
2026-09-12T
13:52:25+0000
1.487 km
极远距离
4.414211E-6 低风险 0.48
CDM_260913-072305-722606-284321
2026-09-13T
07:23:57+0000
1.692 km
极远距离
2.279204E-6 低风险 0.42
CDM_260913-031205-722606-645921
2026-09-13T
03:12:44+0000
1.954 km
极远距离
2.004461E-6 低风险 0.41
CDM_260913-103405-722606-341321
2026-09-13T
10:34:16+0000
2.299 km
极远距离
1.253746E-6 低风险 0.37
与全量物体交会距离演化趋势
与全量物体交会风险概率演化趋势